EDT,Max TemperatureF,Mean TemperatureF,Min TemperatureF,Max Dew PointF,MeanDew PointF,Min DewpointF,Max Humidity, Mean Humidity, Min Humidity, Max Sea Level PressureIn, Mean Sea Level PressureIn, Min Sea Level PressureIn, Max VisibilityMiles, Mean VisibilityMiles, Min VisibilityMiles, Max Wind SpeedMPH, Mean Wind SpeedMPH, Max Gust SpeedMPH,PrecipitationIn, CloudCover, Events, WindDirDegrees
2012-3-1,69,54,39,61,38,28,94,55,23,30.00,29.92,29.82,10.0,10.0,10.0,13,5,,0.00,1,,265
2012-3-2,75,65,55,63,59,45,94,78,59,29.82,29.71,29.61,10.0,9.4,3.0,22,8,32,0.00,6,,202
2012-3-3,53,44,35,45,29,21,81,56,28,29.96,29.88,29.76,10.0,10.0,10.0,15,9,,0.00,1,,351
2012-3-4,50,37,26,28,24,18,93,54,32,30.03,29.97,29.90,10.0,10.0,10.0,16,5,,0.00,3,,269
2012-3-5,51,44,37,28,24,18,65,46,32,30.42,30.24,29.92,10.0,10.0,10.0,20,12,28,0.00,2,,314
2012-3-6,64,50,37,27,23,16,45,29,21,30.48,30.42,30.35,10.0,10.0,10.0,18,12,28,0.00,0,,150
2012-3-7,68,59,50,48,43,25,76,56,33,30.45,30.37,30.28,10.0,9.9,5.0,24,13,30,0.00,1,,157
2012-3-8,73,60,48,61,52,46,100,76,53,30.28,30.19,30.07,10.0,8.4,1.8,21,12,30,0.00,5,,181
2012-3-9,55,44,33,48,33,27,100,67,33,30.43,30.36,30.21,10.0,9.7,4.0,18,9,,0.00,2,,13
2012-3-10,64,45,26,36,29,23,93,60,26,30.45,30.38,30.31,10.0,10.0,10.0,9,2,,0.00,0,,113
2012-3-11,68,58,48,50,37,27,56,48,35,30.44,30.36,30.25,10.0,10.0,10.0,22,12,26,0.00,1,,149
2012-3-12,62,61,60,59,58,57,88,85,82,30.20,30.19,30.17,10.0,9.5,5.0,14,9,,0.00,8,,168
2012-3-13,77,65,53,61,56,48,94,71,36,30.24,30.19,30.15,10.0,10.0,10.0,12,6,,0.00,3,,237
2012-3-14,80,63,46,61,53,46,100,73,37,30.28,30.22,30.17,10.0,10.0,8.0,7,1,,0.00,0,,219
2012-3-15,82,66,51,64,57,52,100,75,39,30.29,30.23,30.14,10.0,9.6,5.0,23,2,30,0.00,2,,226
2012-3-16,75,65,55,64,57,54,94,76,57,30.24,30.18,30.14,10.0,9.9,6.0,10,5,,0.00,3,,169
2012-3-17,80,70,60,61,59,55,88,71,47,30.25,30.18,30.13,10.0,10.0,10.0,9,3,,0.00,3,,137
2012-3-18,82,68,53,61,53,39,100,64,21,30.27,30.20,30.14,10.0,10.0,10.0,7,1,,0.00,1,,219
2012-3-19,84,68,53,57,54,50,94,63,35,30.20,30.14,30.07,10.0,9.4,5.0,10,2,,0.00,0,,190
2012-3-20,82,70,59,61,56,52,88,58,39,30.15,30.09,30.02,10.0,10.0,10.0,21,5,25,0.00,0,,159
2012-3-21,77,67,57,57,56,52,88,61,47,30.17,30.13,30.09,10.0,10.0,10.0,17,7,,0.00,1,,136
2012-3-22,77,70,62,63,60,55,94,76,50,30.16,30.12,30.08,10.0,9.7,1.5,18,9,,0.00,2,,152
2012-3-23,75,68,62,63,60,46,100,79,47,30.08,29.98,29.87,10.0,9.5,0.8,17,9,,0.00,4,,173
2012-3-24,64,54,42,52,47,43,100,77,52,29.95,29.91,29.85,10.0,9.0,0.2,18,5,,0.00,5,,253
2012-3-25,69,56,42,54,48,43,100,80,49,30.03,29.96,29.92,10.0,6.0,0.2,12,2,,0.00,5,,339
2012-3-26,75,58,42,55,49,43,100,72,36,30.13,30.08,30.03,10.0,7.7,0.2,12,2,36,0.00,1,,14
2012-3-27,80,62,44,50,47,43,100,61,28,30.20,30.15,30.11,10.0,9.8,3.0,15,3,,0.00,0,,155
2012-3-28,78,68,57,61,55,48,82,60,42,30.17,30.09,30.01,10.0,10.0,10.0,14,6,,0.00,1,,223
2012-3-29,78,66,55,59,54,50,100,69,36,30.07,30.01,29.94,10.0,10.0,10.0,7,1,,0.00,3,,283
2012-3-30,73,63,53,63,58,52,100,82,64,29.98,29.93,29.85,10.0,10.0,7.0,10,2,,0.00,3,,209
2012-3-31,78,66,53,63,60,54,100,87,53,29.92,29.89,29.83,10.0,9.4,6.0,9,2,,0.00,4,,244